JAL2019 RJOO-RJCC

Flight info

Callsign JAL2019
Flight time 1h 20m
Altitude 35000
Route MINAC GUJYO Y13 SIRAO Y139 NAVER
Aircraft B738/M-SDE2E3FGHIRWXY/LB1

Departure

Time 2026-04-28 14:55
Airport Osaka Itami International Airport (RJOO)

Arrival

Time 2026-04-28 16:15
Airport New Chitose Airport (RJCC)
Time Latitude Longitude Altitude Speed Heading
2026-04-28 14:31 34.79290 135.43774 47 ft 0 kts 164°
2026-04-28 14:44 34.79292 135.43773 47 ft 2 kts 164°
2026-04-28 14:44 34.79317 135.43764 47 ft 4 kts 164°
2026-04-28 14:45 34.79343 135.43755 45 ft 4 kts 164°
2026-04-28 14:45 34.79370 135.43746 45 ft 4 kts 164°
2026-04-28 14:45 34.79377 135.43743 47 ft 0 kts 164°
2026-04-28 14:47 34.79370 135.43744 47 ft 4 kts 177°
2026-04-28 14:47 34.79343 135.43723 47 ft 5 kts 221°
2026-04-28 14:48 34.79305 135.43684 46 ft 11 kts 218°
2026-04-28 14:48 34.79208 135.43635 47 ft 19 kts 195°
2026-04-28 14:48 34.79071 135.43639 47 ft 20 kts 154°
2026-04-28 14:48 34.78963 135.43737 48 ft 19 kts 142°
2026-04-28 14:49 34.78866 135.43847 47 ft 19 kts 134°
2026-04-28 14:49 34.78762 135.43976 47 ft 24 kts 135°
2026-04-28 14:49 34.78637 135.44123 44 ft 25 kts 134°
2026-04-28 14:49 34.78522 135.44267 45 ft 23 kts 136°
2026-04-28 14:50 34.78383 135.44341 49 ft 22 kts 181°
2026-04-28 14:50 34.78232 135.44332 48 ft 22 kts 191°
2026-04-28 14:50 34.78156 135.44241 46 ft 0 kts 254°
2026-04-28 14:50 34.78155 135.44211 49 ft 12 kts 276°
2026-04-28 14:51 34.78236 135.44158 47 ft 16 kts 18°
2026-04-28 14:51 34.78266 135.44268 48 ft 15 kts 114°
2026-04-28 14:51 34.78188 135.44347 48 ft 15 kts 151°
2026-04-28 14:51 34.78108 135.44421 48 ft 14 kts 137°
2026-04-28 14:52 34.78034 135.44507 48 ft 19 kts 136°
2026-04-28 14:52 34.77911 135.44652 47 ft 30 kts 135°
2026-04-28 14:52 34.77760 135.44837 44 ft 30 kts 135°
2026-04-28 14:52 34.77615 135.45011 46 ft 28 kts 135°
2026-04-28 14:53 34.77482 135.45176 46 ft 27 kts 134°
2026-04-28 14:53 34.77346 135.45306 47 ft 23 kts 171°
2026-04-28 14:53 34.77292 135.45293 48 ft 0 kts 212°
2026-04-28 14:54 34.77264 135.45254 47 ft 12 kts 237°
2026-04-28 14:54 34.77277 135.45122 47 ft 22 kts 309°
2026-04-28 14:54 34.77533 135.44798 49 ft 95 kts 315°
2026-04-28 14:54 34.78173 135.44016 66 ft 164 kts 315°
2026-04-28 14:55 34.79042 135.42974 762 ft 181 kts 317°
2026-04-28 14:55 34.79637 135.41707 1975 ft 175 kts 283°
2026-04-28 14:55 34.79820 135.40118 2572 ft 202 kts 284°
2026-04-28 14:55 34.80577 135.38655 2790 ft 219 kts 325°
2026-04-28 14:56 34.82099 135.38187 3225 ft 240 kts
2026-04-28 14:56 34.83714 135.38975 3440 ft 272 kts 36°
2026-04-28 14:56 34.84986 135.40758 3999 ft 283 kts 62°
2026-04-28 14:56 34.85547 135.43072 4766 ft 286 kts 82°
2026-04-28 14:57 34.85755 135.45484 5512 ft 292 kts 86°
2026-04-28 14:57 34.85853 135.47134 6075 ft 294 kts 87°
2026-04-28 14:57 34.86059 135.50464 7088 ft 298 kts 86°
2026-04-28 14:57 34.86242 135.53005 7745 ft 304 kts 86°
2026-04-28 14:58 34.86446 135.55608 8396 ft 310 kts 85°
2026-04-28 14:58 34.86673 135.58215 9122 ft 313 kts 85°
2026-04-28 14:58 34.86918 135.60884 9786 ft 319 kts 85°
2026-04-28 14:58 34.87174 135.63575 10356 ft 328 kts 85°
2026-04-28 14:59 34.87453 135.66453 10499 ft 353 kts 84°
2026-04-28 14:59 34.87752 135.69518 10664 ft 373 kts 84°
2026-04-28 14:59 34.88068 135.72748 10907 ft 389 kts 84°
2026-04-28 14:59 34.88390 135.76024 11347 ft 398 kts 84°
2026-04-28 15:00 34.88723 135.79414 11942 ft 402 kts 84°
2026-04-28 15:00 34.89055 135.82790 12546 ft 407 kts 84°
2026-04-28 15:00 34.89395 135.86257 13108 ft 414 kts 84°
2026-04-28 15:00 34.89784 135.89744 13716 ft 419 kts 79°
2026-04-28 15:01 34.90664 135.93122 14345 ft 424 kts 64°
2026-04-28 15:01 34.92162 135.96237 14997 ft 426 kts 51°
2026-04-28 15:01 34.94090 135.99036 15480 ft 432 kts 45°
2026-04-28 15:01 34.96109 136.01765 15991 ft 439 kts 44°
2026-04-28 15:02 34.98184 136.04560 16542 ft 443 kts 44°
2026-04-28 15:02 35.00234 136.07339 17085 ft 447 kts 45°
2026-04-28 15:02 35.02332 136.10208 17590 ft 453 kts 45°
2026-04-28 15:02 35.04442 136.13115 18051 ft 459 kts 45°
2026-04-28 15:03 35.06546 136.16028 18544 ft 463 kts 45°
2026-04-28 15:03 35.08671 136.18978 19048 ft 466 kts 45°
2026-04-28 15:03 35.10831 136.21983 19556 ft 471 kts 45°
2026-04-28 15:03 35.13008 136.25013 20006 ft 475 kts 44°
2026-04-28 15:04 35.15179 136.28037 20485 ft 478 kts 44°
2026-04-28 15:04 35.17394 136.31122 20904 ft 484 kts 44°
2026-04-28 15:04 35.19604 136.34205 21335 ft 487 kts 44°
2026-04-28 15:04 35.21866 136.37363 21774 ft 491 kts 44°
2026-04-28 15:05 35.24107 136.40494 22197 ft 494 kts 44°
2026-04-28 15:05 35.26385 136.43682 22593 ft 498 kts 45°
2026-04-28 15:05 35.28661 136.46868 22837 ft 504 kts 44°
2026-04-28 15:05 35.30989 136.50130 23272 ft 506 kts 44°
2026-04-28 15:06 35.33290 136.53359 23665 ft 509 kts 44°
2026-04-28 15:06 35.35655 136.56643 23951 ft 512 kts 41°
2026-04-28 15:06 35.38208 136.59606 24278 ft 506 kts 32°
2026-04-28 15:06 35.41016 136.62262 24651 ft 506 kts 30°
2026-04-28 15:07 35.43828 136.64812 24998 ft 507 kts 29°
2026-04-28 15:07 35.46664 136.67356 25301 ft 510 kts 29°
2026-04-28 15:07 35.49549 136.69957 25640 ft 512 kts 29°
2026-04-28 15:07 35.52395 136.72550 25953 ft 514 kts 30°
2026-04-28 15:08 35.55277 136.75204 26258 ft 516 kts 30°
2026-04-28 15:08 35.58126 136.77845 26557 ft 519 kts 30°
2026-04-28 15:08 35.61021 136.80541 26877 ft 521 kts 30°
2026-04-28 15:08 35.63924 136.83251 27157 ft 523 kts 30°
2026-04-28 15:09 35.66799 136.85936 27472 ft 524 kts 30°
2026-04-28 15:09 35.69721 136.88667 27732 ft 526 kts 30°
2026-04-28 15:09 35.72625 136.91382 27982 ft 528 kts 30°
2026-04-28 15:09 35.74574 136.93205 28184 ft 528 kts 30°
2026-04-28 15:10 35.78478 136.96861 28575 ft 529 kts 30°
2026-04-28 15:10 35.81415 136.99614 28850 ft 531 kts 30°
2026-04-28 15:10 35.84342 137.02360 29086 ft 533 kts 30°
2026-04-28 15:10 35.87283 137.05118 29310 ft 534 kts 30°
2026-04-28 15:11 35.90263 137.07917 29634 ft 534 kts 30°
2026-04-28 15:11 35.93184 137.10666 30040 ft 531 kts 30°
2026-04-28 15:11 35.96133 137.13444 30390 ft 530 kts 30°
2026-04-28 15:11 35.99070 137.16211 30736 ft 529 kts 31°
2026-04-28 15:12 36.01969 137.18946 31074 ft 528 kts 30°
2026-04-28 15:12 36.04912 137.21726 31245 ft 531 kts 30°
2026-04-28 15:12 36.07835 137.24483 31380 ft 535 kts 29°
2026-04-28 15:12 36.10815 137.27301 31695 ft 534 kts 29°
2026-04-28 15:13 36.13739 137.30072 32068 ft 532 kts 29°
2026-04-28 15:13 36.16694 137.32876 32437 ft 530 kts 29°
2026-04-28 15:13 36.19599 137.35631 32771 ft 529 kts 29°
2026-04-28 15:13 36.22534 137.38416 33071 ft 529 kts 29°
2026-04-28 15:14 36.25424 137.41163 33381 ft 527 kts 29°
2026-04-28 15:14 36.28333 137.43931 33729 ft 525 kts 29°
2026-04-28 15:14 36.31247 137.46705 34009 ft 524 kts 29°
2026-04-28 15:14 36.34100 137.49425 34429 ft 519 kts 29°
2026-04-28 15:15 36.36972 137.52168 34795 ft 515 kts 29°
2026-04-28 15:15 36.38856 137.53970 34985 ft 513 kts 29°
2026-04-28 15:15 36.42645 137.57588 35004 ft 517 kts 29°
2026-04-28 15:16 36.48332 137.63028 34939 ft 514 kts 29°
2026-04-28 15:16 36.53978 137.68448 34976 ft 512 kts 29°
2026-04-28 15:16 36.56805 137.71007 34977 ft 501 kts 24°
2026-04-28 15:17 36.59740 137.73358 35035 ft 502 kts 22°
2026-04-28 15:17 36.65748 137.77936 35011 ft 508 kts 21°
2026-04-28 15:18 36.71825 137.82560 34998 ft 515 kts 22°
2026-04-28 15:18 36.77901 137.87262 35004 ft 515 kts 22°
2026-04-28 15:19 36.83914 137.91972 34976 ft 507 kts 22°
2026-04-28 15:19 36.89892 137.96656 34966 ft 507 kts 21°
2026-04-28 15:20 36.95863 138.01333 34970 ft 506 kts 21°
2026-04-28 15:20 37.01821 138.06007 34963 ft 508 kts 21°
2026-04-28 15:21 37.07847 138.10736 34960 ft 514 kts 21°
2026-04-28 15:21 37.13885 138.15496 34963 ft 514 kts 21°
2026-04-28 15:22 37.19927 138.20271 34948 ft 514 kts 21°
2026-04-28 15:22 37.25966 138.25051 34965 ft 513 kts 21°
2026-04-28 15:23 37.31998 138.29830 34961 ft 513 kts 20°
2026-04-28 15:23 37.38027 138.34618 34950 ft 513 kts 20°
2026-04-28 15:24 37.44042 138.39403 34942 ft 512 kts 20°
2026-04-28 15:24 37.49083 138.43420 34946 ft 512 kts 20°
2026-04-28 15:25 37.55093 138.48218 34948 ft 513 kts 20°
2026-04-28 15:25 37.61108 138.53028 34946 ft 513 kts 20°
2026-04-28 15:26 37.67136 138.57859 34948 ft 513 kts 20°
2026-04-28 15:26 37.73132 138.62674 34943 ft 513 kts 20°
2026-04-28 15:27 37.79197 138.67554 34944 ft 514 kts 20°
2026-04-28 15:27 37.85190 138.72386 34947 ft 514 kts 20°
2026-04-28 15:28 37.91248 138.77281 34941 ft 514 kts 20°
2026-04-28 15:28 37.97269 138.82155 34949 ft 514 kts 20°
2026-04-28 15:29 38.03259 138.87014 34947 ft 514 kts 20°
2026-04-28 15:29 38.09315 138.91935 34940 ft 515 kts 20°
2026-04-28 15:30 38.15345 138.96842 34943 ft 515 kts 20°
2026-04-28 15:30 38.21369 139.01751 34946 ft 515 kts 20°
2026-04-28 15:31 38.27403 139.06679 34947 ft 516 kts 20°
2026-04-28 15:31 38.33440 139.11623 34943 ft 516 kts 20°
2026-04-28 15:32 38.39449 139.16553 34943 ft 517 kts 20°
2026-04-28 15:32 38.45484 139.21513 34947 ft 517 kts 20°
2026-04-28 15:33 38.51528 139.26491 34942 ft 517 kts 20°
2026-04-28 15:33 38.57584 139.31488 34945 ft 518 kts 20°
2026-04-28 15:34 38.63635 139.36493 34944 ft 518 kts 20°
2026-04-28 15:34 38.69670 139.41496 34942 ft 518 kts 20°
2026-04-28 15:35 38.75723 139.46522 34943 ft 519 kts 20°
2026-04-28 15:35 38.84815 139.54091 34944 ft 519 kts 20°
2026-04-28 15:36 38.90870 139.59146 34942 ft 519 kts 20°
2026-04-28 15:36 38.96923 139.64213 34951 ft 519 kts 19°
2026-04-28 15:37 39.02980 139.69200 34940 ft 512 kts 15°
2026-04-28 15:37 39.06140 139.71163 34955 ft 496 kts
2026-04-28 15:37 39.09289 139.72854 34945 ft 493 kts
2026-04-28 15:38 39.15647 139.76150 34947 ft 493 kts
2026-04-28 15:38 39.22018 139.79504 34942 ft 495 kts
2026-04-28 15:39 39.28373 139.82924 34945 ft 496 kts
2026-04-28 15:39 39.34739 139.86377 34950 ft 497 kts
2026-04-28 15:40 39.41111 139.89837 34957 ft 498 kts
2026-04-28 15:40 39.47495 139.93308 34954 ft 498 kts
2026-04-28 15:41 39.53914 139.96803 34950 ft 498 kts
2026-04-28 15:41 39.60294 140.00286 34952 ft 498 kts
2026-04-28 15:42 39.66666 140.03768 34952 ft 497 kts
2026-04-28 15:42 39.73031 140.07284 34958 ft 500 kts
2026-04-28 15:43 39.79351 140.11136 34950 ft 504 kts
2026-04-28 15:43 39.85648 140.15118 34954 ft 504 kts
2026-04-28 15:44 39.91948 140.19069 34962 ft 503 kts
2026-04-28 15:44 39.98298 140.23017 34971 ft 503 kts
2026-04-28 15:45 40.04610 140.26933 34956 ft 502 kts
2026-04-28 15:45 40.10908 140.30853 34959 ft 502 kts
2026-04-28 15:46 40.17204 140.34784 34965 ft 501 kts
2026-04-28 15:46 40.23464 140.38698 34958 ft 501 kts
2026-04-28 15:47 40.29754 140.42640 34964 ft 501 kts
2026-04-28 15:47 40.36055 140.46595 34960 ft 501 kts
2026-04-28 15:48 40.42326 140.50542 34968 ft 502 kts 10°
2026-04-28 15:48 40.48632 140.54518 34956 ft 504 kts 10°
2026-04-28 15:49 40.51819 140.56531 34786 ft 507 kts 10°
2026-04-28 15:49 40.55003 140.58537 34124 ft 512 kts 11°
2026-04-28 15:49 40.58220 140.60574 33514 ft 511 kts 11°
2026-04-28 15:49 40.61396 140.62593 32909 ft 511 kts 11°
2026-04-28 15:50 40.64611 140.64641 32446 ft 507 kts 11°
2026-04-28 15:50 40.67756 140.66643 31979 ft 504 kts 11°
2026-04-28 15:50 40.70875 140.68624 31520 ft 500 kts 11°
2026-04-28 15:50 40.74023 140.70608 31051 ft 494 kts
2026-04-28 15:51 40.77149 140.72289 30434 ft 487 kts
2026-04-28 15:51 40.80332 140.73812 29942 ft 482 kts
2026-04-28 15:51 40.83510 140.75275 29487 ft 479 kts
2026-04-28 15:51 40.86612 140.76745 29021 ft 477 kts
2026-04-28 15:52 40.89711 140.78251 28553 ft 475 kts
2026-04-28 15:52 40.92818 140.79798 28106 ft 472 kts
2026-04-28 15:52 40.95876 140.81322 27663 ft 467 kts
2026-04-28 15:52 40.98914 140.82830 27211 ft 463 kts
2026-04-28 15:53 41.01899 140.84312 26766 ft 459 kts
2026-04-28 15:53 41.04867 140.85786 26310 ft 455 kts
2026-04-28 15:53 41.07843 140.87262 25860 ft 452 kts
2026-04-28 15:53 41.10758 140.88708 25414 ft 449 kts
2026-04-28 15:54 41.13691 140.90164 24966 ft 445 kts 10°
2026-04-28 15:54 41.16568 140.91595 24520 ft 443 kts 11°
2026-04-28 15:54 41.19457 140.93034 24078 ft 439 kts 11°
2026-04-28 15:54 41.22290 140.94446 23644 ft 436 kts 12°
2026-04-28 15:55 41.25134 140.95865 23198 ft 433 kts 12°
2026-04-28 15:55 41.27917 140.97255 22736 ft 429 kts 12°
2026-04-28 15:55 41.30720 140.98658 22345 ft 424 kts 12°
2026-04-28 15:55 41.33438 141.00007 22053 ft 418 kts 12°
2026-04-28 15:56 41.36156 141.01344 21777 ft 410 kts 12°
2026-04-28 15:56 41.38790 141.02633 21535 ft 404 kts 12°
2026-04-28 15:56 41.41433 141.03929 21202 ft 399 kts 12°
2026-04-28 15:56 41.44017 141.05197 20803 ft 397 kts 12°
2026-04-28 15:57 41.46618 141.06479 20414 ft 395 kts 12°
2026-04-28 15:57 41.49155 141.07734 20093 ft 389 kts 12°
2026-04-28 15:57 41.51677 141.08980 19703 ft 387 kts 13°
2026-04-28 15:57 41.54206 141.10227 19298 ft 385 kts 13°
2026-04-28 15:58 41.56723 141.11468 18891 ft 383 kts 13°
2026-04-28 15:58 41.59191 141.12689 18489 ft 381 kts 13°
2026-04-28 15:58 41.61685 141.13925 18078 ft 379 kts 13°
2026-04-28 15:58 41.64164 141.15153 17671 ft 378 kts 14°
2026-04-28 15:59 41.66624 141.16378 17263 ft 376 kts 14°
2026-04-28 15:59 41.68249 141.17187 16995 ft 375 kts 14°
2026-04-28 15:59 41.71457 141.18801 16620 ft 367 kts 14°
2026-04-28 15:59 41.73844 141.20009 16239 ft 365 kts 14°
2026-04-28 16:00 41.76189 141.21196 15863 ft 362 kts 14°
2026-04-28 16:00 41.78553 141.22394 15475 ft 361 kts 15°
2026-04-28 16:00 41.80882 141.23574 15088 ft 358 kts 15°
2026-04-28 16:00 41.83193 141.24745 14699 ft 356 kts 15°
2026-04-28 16:01 41.85510 141.25921 14309 ft 354 kts 15°
2026-04-28 16:01 41.87817 141.27092 13922 ft 352 kts 15°
2026-04-28 16:01 41.90081 141.28242 13603 ft 348 kts 15°
2026-04-28 16:01 41.92343 141.29394 13281 ft 344 kts 15°
2026-04-28 16:02 41.94581 141.30534 12931 ft 341 kts 16°
2026-04-28 16:02 41.96702 141.31885 12554 ft 344 kts 28°
2026-04-28 16:02 41.98580 141.33912 12208 ft 345 kts 40°
2026-04-28 16:02 42.00312 141.36156 11842 ft 343 kts 41°
2026-04-28 16:03 42.01993 141.38369 11675 ft 334 kts 42°
2026-04-28 16:03 42.03632 141.40518 11598 ft 323 kts 41°
2026-04-28 16:03 42.05212 141.42574 11520 ft 312 kts 41°
2026-04-28 16:03 42.06753 141.44565 11308 ft 307 kts 41°
2026-04-28 16:04 42.08298 141.46553 10986 ft 306 kts 41°
2026-04-28 16:04 42.09843 141.48539 10699 ft 303 kts 41°
2026-04-28 16:04 42.11346 141.50473 10409 ft 301 kts 41°
2026-04-28 16:04 42.12904 141.52373 10107 ft 298 kts 33°
2026-04-28 16:05 42.14736 141.53628 9817 ft 292 kts 19°
2026-04-28 16:05 42.16604 141.54640 9519 ft 290 kts 19°
2026-04-28 16:05 42.18485 141.55638 9224 ft 289 kts 19°
2026-04-28 16:05 42.20340 141.56628 8934 ft 287 kts 19°
2026-04-28 16:06 42.22198 141.57629 8649 ft 285 kts 19°
2026-04-28 16:06 42.24024 141.58622 8362 ft 284 kts 19°
2026-04-28 16:06 42.25835 141.59613 8074 ft 282 kts 20°
2026-04-28 16:06 42.27659 141.60615 7772 ft 281 kts 20°
2026-04-28 16:07 42.29447 141.61600 7485 ft 279 kts 20°
2026-04-28 16:07 42.31241 141.62590 7205 ft 277 kts 20°
2026-04-28 16:07 42.34754 141.64533 6494 ft 269 kts 20°
2026-04-28 16:08 42.36459 141.65478 6209 ft 261 kts 20°
2026-04-28 16:08 42.38134 141.66406 5814 ft 258 kts 20°
2026-04-28 16:08 42.39777 141.67317 5398 ft 256 kts 20°
2026-04-28 16:09 42.43046 141.69132 4611 ft 251 kts 21°
2026-04-28 16:09 42.44640 141.70018 4356 ft 246 kts 21°
2026-04-28 16:09 42.46213 141.70893 4105 ft 240 kts 21°
2026-04-28 16:10 42.49204 141.72558 3824 ft 219 kts 22°
2026-04-28 16:10 42.50553 141.73307 3784 ft 204 kts 22°
2026-04-28 16:10 42.53256 141.73589 3792 ft 193 kts 356°
2026-04-28 16:11 42.55907 141.73223 3785 ft 191 kts 353°
2026-04-28 16:11 42.58562 141.72762 3511 ft 195 kts 352°
2026-04-28 16:12 42.61209 141.72295 2996 ft 189 kts 353°
2026-04-28 16:12 42.62493 141.72066 2755 ft 186 kts 353°
2026-04-28 16:13 42.65110 141.71609 2236 ft 193 kts 353°
2026-04-28 16:13 42.66451 141.71368 1993 ft 194 kts 353°
2026-04-28 16:13 42.69134 141.70894 1488 ft 192 kts 352°
2026-04-28 16:14 42.71241 141.70519 1094 ft 177 kts 352°
2026-04-28 16:14 42.73702 141.70095 599 ft 182 kts 353°
2026-04-28 16:15 42.76062 141.69650 125 ft 153 kts 351°
2026-04-28 16:15 42.77031 141.69473 62 ft 129 kts 354°
2026-04-28 16:15 42.77496 141.69405 62 ft 30 kts 354°
2026-04-28 16:16 42.77850 141.69243 65 ft 21 kts 329°
2026-04-28 16:16 42.77975 141.69117 66 ft 24 kts 321°
2026-04-28 16:17 42.78216 141.68872 67 ft 23 kts 322°
2026-04-28 16:17 42.78342 141.68717 67 ft 26 kts 309°
2026-04-28 16:17 42.78419 141.68502 67 ft 27 kts 291°
2026-04-28 16:17 42.78492 141.68352 67 ft 20 kts 308°
2026-04-28 16:18 42.78549 141.68249 67 ft 13 kts 304°
2026-04-28 16:18 42.78569 141.68210 67 ft 0 kts 305°